Regional Weather Roundup
Issued by NWS

Home | Current Version | Previous Version | Text Only | Print | Product List | Glossary Off
Versions: 1 2 3 4 5 6 7 8 9 10 11 12 13 14 15 16 17 18 19 20 21 22 23 24 25 26 27 28 29 30 31 32 33 34 35 36 37 38 39 40 41 42 43 44 45 46 47 48 49 50

000
ASUS43 KIND 241109
RWRIN

WEATHER ROUNDUP FOR INDIANA
NATIONAL WEATHER SERVICE INDIANAPOLIS IN
700 AM EDT THU APR 24 2014

NOTE: "FAIR" INDICATES FEW OR NO CLOUDS BELOW 12,000 FEET WITH NO
SIGNIFICANT WEATHER AND/OR OBSTRUCTIONS TO VISIBILITY.

* - STATION DOES NOT REPORT WEATHER SUCH AS PRECIPITATION OR FOG.

+ - STATION NOT QUALITY CONTROLLED BY THE NATIONAL WEATHER SERVICE.
    USE DATA WITH CAUTION...ESPECIALLY DEWPOINT AND RELATIVE
    HUMIDITY OBSERVATIONS.

INZ001>003-010>013-019-020-241200-
NORTHWEST INDIANA

CITY           SKY/WX    TMP DP  RH WIND       PRES   REMARKS
GARY /AIRPORT/ CLOUDY    43  37  81 NE9       30.06F
LA PORTE +     CLOUDY    45  32  60 E5        30.08S
MICHIGAN CITY+ CLOUDY    45  32  61 CALM      30.07F
MONTICELLO +   CLOUDY    49  37  62 E5        30.05S
RENSSELAER +   CLOUDY    46  39  76 E6        30.06R
VALPARAISO     CLOUDY    43  36  76 NE6       30.06R

$$

LMZ046-743>745-241200-
SOUTHERN LAKE MICHIGAN

STATION/POSITION TIME  TEMP WIND        PRES
                       AIR  DIR/SP/G
                 (UTC) (F)  (DEG/KT/KT) (MB)
MICHIGAN CITY    1100   46   50/  3/  4   N/A

$$

INZ004-005-014>016-021>024-241200-
NORTH CENTRAL INDIANA

CITY           SKY/WX    TMP DP  RH WIND       PRES   REMARKS
GOSHEN         CLOUDY    49  34  56 SE8       30.09R
LOGANSPORT +   CLOUDY    45  36  70 E8        30.08R
PERU/GRISSOM   CLOUDY    47  39  75 E7        30.07S
ROCHESTER +    CLOUDY    50  34  53 E7        30.09R
SOUTH BEND     CLOUDY    50  30  46 SE9       30.09S
WARSAW +       MOCLDY    46  34  61 SE3       30.09R

$$

INZ006>009-017-018-025>027-241200-
NORTHEAST INDIANA

CITY           SKY/WX    TMP DP  RH WIND       PRES   REMARKS
ANGOLA *+      CLOUDY    45  34  65 SE9       30.09F
AUBURN +       CLOUDY    45  32  61 E5        30.10F
FORT WAYNE     MOCLDY    45  33  63 E7        30.11R

$$

INZ028-029-035-036-043>045-051>053-241200-
WEST CENTRAL INDIANA

CITY           SKY/WX    TMP DP  RH WIND       PRES   REMARKS
GREENCASTLE +  CLOUDY    48  36  61 E9        30.04R
LAFAYETTE      CLOUDY    49  35  58 E9        30.05R
TERRE HAUTE    MOCLDY    48  36  63 E3        30.02R

$$

INZ030>032-037>040-046>048-054>057-064-065-241200-
CENTRAL INDIANA

CITY           SKY/WX    TMP DP  RH WIND       PRES   REMARKS
CP ATTERBURY + PTCLDY    46  36  66 E7        30.07R
COLUMBUS       PTCLDY    48  36  61 MISG      30.06
GREENWOOD *+   MOCLDY    48  36  61 E7        30.07
INDIANAPOLIS   MOCLDY    48  34  58 E10       30.04S
-EAGLE CREEK   MOCLDY    49  34  56 SE7       30.05R
KOKOMO *+      CLOUDY    46  36  66 E7        30.09R
MARION +       CLOUDY    46  33  59 SE7       30.10R
MT COMFORT *+  CLOUDY    48  36  61 SE10      30.07S
SHELBYVILLE    CLOUDY    51  35  54 E8        30.08R
ZIONSVILLE +   CLOUDY    49  35  56 E5        30.08R

$$

INZ033-034-041-042-049-050-058-059-241200-
EAST CENTRAL INDIANA

CITY           SKY/WX    TMP DP  RH WIND       PRES   REMARKS
MUNCIE           N/A     46  33  60 SE8       30.09R

$$

INZ060-061-067>069-081>083-085>088-241200-
SOUTHWEST INDIANA

CITY           SKY/WX    TMP DP  RH WIND       PRES   REMARKS
EVANSVILLE     PTCLDY    50  35  56 VRB3      29.98F
HUNTINGBURG *+ CLOUDY    50  34  53 SE9       30.00S
WASHINGTON +   PTCLDY    49  38  65 E5        29.99S

$$

INZ062-063-066-070>080-084-089>092-241200-
SOUTH CENTRAL AND SOUTHEAST INDIANA

CITY           SKY/WX    TMP DP  RH WIND       PRES   REMARKS
BEDFORD +      MOCLDY    50  32  50 E8        30.02
BLOOMINGTON    MOCLDY    51  33  50 E12       30.02R

$$




USA.gov is the U.S. government's official web portal to all federal, state and local government web resources and services.